Regional Weather Roundup
Issued by NWS State College, PA

Home | Current Version | Previous Version | Text Only | Print | Product List | Glossary Off
Versions: 1 2 3 4 5 6 7 8 9 10 11 12 13 14 15 16 17 18 19 20 21 22 23 24 25 26 27 28 29 30 31 32 33 34 35 36 37 38 39 40 41 42 43 44 45 46 47 48 49 50

000
ASUS41 KCTP 272203
RWRCTP

REGIONAL WEATHER ROUNDUP
NATIONAL WEATHER SERVICE STATE COLLEGE PA
600 PM EDT THU APR 27 2017

Note: "fair" indicates few or no clouds below 12,000 feet with no
significant weather and/or obstructions to visibility.

* = STATION THAT DOES NOT REPORT PRECIPITATION /E.G. RAIN...SNOW...ETC/
    THUNDER OR FOG.

PAZ002>004-007>009-013>016-020>023-029>032-272300-
WESTERN PENNSYLVANIA

CITY           SKY/WX    TMP DP  RH WIND       PRES   REMARKS
ERIE           CLOUDY    62  55  77 SW9G22    29.63R
MEADVILLE      MOSUNNY   75  55  49 S8G21     29.60F
FRANKLIN*      MOSUNNY   68  57  68 S16       29.66F
NEW CASTLE     FAIR      75  57  53 S9G20     29.62F
BEAVER COUNTY  NOT AVBL
BUTLER*        CLOUDY    72  57  60 S9G20     29.67F
PITTSBURGH INT CLOUDY    74  59  59 S14G22    29.65F
PITTSBURGH     PTSUNNY   73  57  57 S14G22    29.67R
INDIANA*       CLOUDY    77  54  44 SW8       29.72R
LATROBE        LGT RAIN  75  55  50 S14G23    29.71R
WASHINGTON CO* PTSUNNY   73  57  56 S14G21    29.70S
$$

PAZ004>006-010>012-017>019-024>028-033>037-041-042-045-046-049>053-272300-
CENTRAL PENNSYLVANIA

CITY           SKY/WX    TMP DP  RH WIND       PRES   REMARKS
BRADFORD       PTSUNNY   73  56  54 S15G22    29.69R
DUBOIS         CLOUDY    74  56  53 S10       29.69R
CLEARFIELD     CLOUDY    75  60  59 S6        29.71F
JOHNSTOWN      TSTM      69  62  78 S8G18     29.75R
ALTOONA        CLOUDY    73  62  68 S10       29.74S
STATE COLLEGE  NOT AVBL
WILLIAMSPORT   PTSUNNY   79  60  52 S10G28    29.70R
SELINSGROVE    MOSUNNY   78  62  57 SW12G20   29.73R
FT INDIANTOWN  PTSUNNY   77  64  63 S15G21    29.76R
CAPITAL CITY   MOSUNNY   80  62  54 S14       29.75R
HARRISBURG     PTSUNNY   77  64  64 SE9       29.75R
YORK           MOSUNNY   76  65  68 SE9G18    29.76R
$$

PAZ038>040-043-044-047-048-054-055-060>062-067>071-272300-
EASTERN PENNSYLVANIA

CITY           SKY/WX    TMP DP  RH WIND       PRES   REMARKS
SCRANTON       CLOUDY    77  60  55 S8        29.77R
MOUNT POCONO   CLOUDY    68  61  78 SE12      29.84R
ALLENTOWN      PTSUNNY   80  61  52 S10       29.79R
QUAKERTOWN*    CLOUDY    77  64  65 SE12G17   29.81S
READING        MOSUNNY   78  65  63 S17G24    29.77R
LANCASTER      PTSUNNY   76  67  73 SE12G20   29.78R
COATESVILLE    PTCLDY    75  64  69 SE10G18   29.82R
POTTSTOWN      CLOUDY    78  62  57 VRB6      29.81R
BLUE BELL      CLOUDY    73  63  68 SE7       29.82S
DOYLESTOWN     CLOUDY    74  64  71 VRB5      29.80S
WILLOW GROVE   NOT AVBL
NORTH PHILA    CLOUDY    75  64  68 SE14      29.83R
PHILADELPHIA   CLOUDY    77  64  64 S9        29.80F
$$




USA.gov is the U.S. government's official web portal to all federal, state and local government web resources and services.